St. Marys, AK

11:51 AM AKST on November 13, 2019 (GMT -0900)
Saint Mary's

Weather History for PASM - September, 2019

Change the Weather History Date:

Wednesday, September 11, 2019

  Actual Average Record
Temperature  
Mean Temperature 48 °F -  
Max Temperature 48 °F 48 °F 59 °F (1998)
Min Temperature 46 °F 37 °F 32 °F (1996)
Degree Days  
Heating Degree Days 17    
Moisture  
Dew Point 46 °F    
Average Humidity 95    
Maximum Humidity 100    
Minimum Humidity 83    
Precipitation  
Precipitation 0.22 in - - ()
Sea Level Pressure  
Sea Level Pressure 29.47 in    
Wind  
Wind Speed 12 mph ()    
Max Wind Speed 24 mph    
Max Gust Speed 33 mph    
Visibility 9.5 miles    
Events Rain    
Averages and records for this station are not official NWS values.
T = Trace of Precipitation, MM = Missing Value Source: Averaged Metar Reports

Daily Weather History Graph

Daily Weather History Graph

Search for Another Location

Airport or City:

Astronomy

Sep. 11, 2019 Rise Set
Actual Time 8:08 AM AKDT 9:29 PM AKDT
Civil Twilight 7:22 AM AKDT 10:15 PM AKDT
Nautical Twilight 6:24 AM AKDT 11:12 PM AKDT
Astronomical Twilight 5:13 AM AKDT 12:22 AM AKDT
Moon 9:41 PM AKDT (9/11) 4:35 AM AKDT (9/11)
Length of Visible Light 14h 52m
Length of Day
13h 20m
Waxing Gibbous, 95% of the Moon is Illuminated
Sep 11
Waxing Gibbous
Sep 13
Full
Sep 21
Last Quarter
Sep 28
New
Oct 5
First Quarter

Hourly Weather History & Observations

Time (AKDT) Temp. Windchill Dew Point Humidity Pressure Visibility Wind Dir Wind Speed Gust Speed Precip Events Conditions
12:02 AM 48.9 °F - 46.9 °F 93% 29.78 in 10.0 mi SSE 6.9 mph - N/A   Scattered Clouds
12:10 AM 48.2 °F - 46.4 °F 93% 29.76 in 10.0 mi SSE 8.1 mph - N/A   Mostly Cloudy
1:02 AM 48.0 °F - 46.0 °F 93% 29.77 in 10.0 mi SE 5.8 mph - N/A   Mostly Cloudy
1:12 AM 46.4 °F 42.9 °F 44.6 °F 93% 29.74 in 10.0 mi SE 6.9 mph - N/A   Scattered Clouds
1:41 AM 46.4 °F 42.4 °F 46.4 °F 100% 29.74 in 10.0 mi SSE 8.1 mph - N/A   Mostly Cloudy
2:02 AM 46.9 °F - 46.0 °F 97% 29.76 in 10.0 mi SSE 8.1 mph - N/A   Mostly Cloudy
2:14 AM 46.4 °F 41.9 °F 46.4 °F 100% 29.73 in 10.0 mi SSE 9.2 mph 16.1 mph N/A   Scattered Clouds
2:37 AM 46.4 °F 41.9 °F 46.4 °F 100% 29.73 in 10.0 mi SE 9.2 mph - N/A   Partly Cloudy
3:02 AM 46.4 °F 41.9 °F 46.4 °F 100% 29.72 in 10.0 mi SE 9.2 mph - N/A   Mostly Cloudy
4:02 AM 48.0 °F - 46.9 °F 96% 29.71 in 10.0 mi SE 9.2 mph - N/A   Overcast
4:15 AM 48.2 °F - 46.4 °F 93% 29.68 in 10.0 mi SE 12.7 mph 18.4 mph N/A   Overcast
4:25 AM 48.2 °F - 46.4 °F 93% 29.67 in 10.0 mi SE 10.4 mph - 0.00 in Rain Light Rain
5:02 AM 46.9 °F - 46.9 °F 100% 29.68 in 10.0 mi ESE 13.8 mph 20.7 mph 0.00 in   Overcast
5:32 AM 46.4 °F 40.4 °F 46.4 °F 100% 29.65 in 10.0 mi SE 13.8 mph - N/A   Overcast
6:02 AM 48.0 °F - 46.0 °F 93% 29.65 in 10.0 mi ESE 16.1 mph 23.0 mph N/A   Overcast
7:02 AM 48.0 °F - 46.0 °F 93% 29.63 in 10.0 mi ESE 17.3 mph 23.0 mph N/A   Overcast
7:34 AM 46.4 °F 39.8 °F 46.4 °F 100% 29.60 in 10.0 mi ESE 16.1 mph 20.7 mph N/A   Overcast
8:02 AM 48.0 °F - 46.0 °F 93% 29.61 in 10.0 mi ESE 17.3 mph - N/A   Overcast
8:53 AM 46.4 °F 40.1 °F 46.4 °F 100% 29.56 in 8.0 mi ESE 15.0 mph 21.9 mph 0.00 in Rain Light Rain
9:02 AM 48.0 °F - 46.0 °F 93% 29.58 in 10.0 mi ESE 15.0 mph 23.0 mph 0.00 in   Overcast
9:10 AM 46.4 °F 39.2 °F 46.4 °F 100% 29.56 in 8.0 mi SE 18.4 mph 26.5 mph 0.00 in Rain Light Rain
9:19 AM 46.4 °F 40.1 °F 46.4 °F 100% 29.55 in 9.0 mi ESE 15.0 mph 24.2 mph 0.00 in Rain Light Rain
9:44 AM 46.4 °F 40.1 °F 46.4 °F 100% 29.54 in 10.0 mi ESE 15.0 mph - 0.00 in   Overcast
10:30 AM 48.2 °F - 46.4 °F 93% 29.52 in 10.0 mi ESE 15.0 mph 24.2 mph 0.00 in Rain Light Rain
11:02 AM 48.0 °F - 46.0 °F 93% 29.53 in 10.0 mi ESE 16.1 mph 21.9 mph 0.01 in Rain Light Rain
12:02 PM 48.0 °F - 46.0 °F 93% 29.49 in 10.0 mi ESE 17.3 mph 25.3 mph 0.01 in Rain Light Rain
1:02 PM 48.9 °F - 46.9 °F 93% 29.44 in 10.0 mi ESE 19.6 mph 28.8 mph 0.01 in Rain Light Rain
3:02 PM 50.0 °F - 45.0 °F 83% 29.36 in 10.0 mi ESE 23.0 mph 29.9 mph 0.00 in   Overcast
4:02 PM 50.0 °F - 46.4 °F 87% 29.31 in 10.0 mi ESE 20.7 mph 31.1 mph 0.00 in Rain Light Rain
4:40 PM 50.0 °F - 46.4 °F 87% 29.28 in 10.0 mi ESE 19.6 mph 33.4 mph 0.01 in Rain Light Rain
5:02 PM 48.9 °F - 46.0 °F 90% 29.29 in 10.0 mi ESE 20.7 mph 32.2 mph 0.02 in Rain Light Rain
6:02 PM 48.9 °F - 46.0 °F 90% 29.22 in 10.0 mi East 24.2 mph 32.2 mph 0.02 in Rain Light Rain
7:02 PM 48.9 °F - 46.9 °F 93% 29.20 in 9.0 mi East 20.7 mph 33.4 mph 0.00 in Rain Light Rain
7:25 PM 48.2 °F - 46.4 °F 93% 29.16 in 9.0 mi East 23.0 mph 31.1 mph 0.01 in Rain Light Rain
7:52 PM 48.2 °F - 46.4 °F 93% 29.15 in 5.0 mi East 19.6 mph 32.2 mph 0.01 in Rain Light Rain
8:24 PM 48.2 °F - 48.2 °F 100% 29.14 in 3.0 mi ESE 20.7 mph 29.9 mph 0.03 in Rain Light Rain
10:00 PM 48.2 °F - 46.4 °F 93% 29.09 in 9.0 mi ESE 21.9 mph 33.4 mph 0.06 in Rain Rain
10:02 PM 48.9 °F - 46.9 °F 93% 29.11 in 9.0 mi East 21.9 mph 28.8 mph 0.06 in Rain Light Rain
10:10 PM 48.2 °F - 46.4 °F 93% 29.09 in 9.0 mi East 19.6 mph 28.8 mph 0.01 in Rain Rain
11:02 PM 48.2 °F - 46.4 °F 93% 29.06 in 10.0 mi East 21.9 mph 28.8 mph 0.07 in Rain Light Rain
11:18 PM 48.2 °F - 46.4 °F 93% 29.06 in 10.0 mi East 21.9 mph 33.4 mph 0.08 in Rain Light Rain
11:35 PM 48.0 °F - 46.9 °F 96% 29.07 in 10.0 mi East 21.9 mph 29.9 mph 0.09 in Rain Light Rain
11:47 PM 48.2 °F - 46.4 °F 93% 29.05 in 10.0 mi East 21.9 mph 29.9 mph 0.00 in Rain Light Rain